Time,TemperatureF,DewpointF,PressureIn,WindDirection,WindDirectionDegrees,WindSpeedMPH,WindSpeedGustMPH,Humidity,HourlyPrecipIn,Conditions,Clouds,dailyrainin,SoftwareType,DateUTC
2013-09-05 00:04:00,76.6,48.3,29.94,South,180,0.0,0.0,37,0.00,,,0.00,WUHU21623XXSP,2013-09-05 07:04:00,
2013-09-05 00:09:00,76.3,50.3,29.94,South,180,0.0,0.0,40,0.00,,,0.00,WUHU21623XXSP,2013-09-05 07:09:00,
2013-09-05 00:15:00,75.7,49.0,29.94,South,180,0.0,0.0,39,0.00,,,0.00,WUHU21623XXSP,2013-09-05 07:15:00,
2013-09-05 00:20:00,76.3,48.4,29.93,South,180,0.0,15.9,37,0.00,,,0.00,WUHU21623XXSP,2013-09-05 07:20:00,
2013-09-05 00:25:00,76.3,50.3,29.94,South,180,0.0,15.9,40,0.00,,,0.00,WUHU21623XXSP,2013-09-05 07:25:00,
2013-09-05 00:30:00,75.9,49.2,29.94,South,180,0.0,13.0,39,0.00,,,0.00,WUHU21623XXSP,2013-09-05 07:30:00,
2013-09-05 00:35:00,75.6,48.8,29.94,South,180,0.0,0.0,39,0.00,,,0.00,WUHU21623XXSP,2013-09-05 07:35:00,
2013-09-05 00:40:00,75.4,48.7,29.94,South,180,0.0,0.0,39,0.00,,,0.00,WUHU21623XXSP,2013-09-05 07:40:00,
2013-09-05 00:45:00,75.0,49.7,29.94,South,180,0.0,0.0,41,0.00,,,0.00,WUHU21623XXSP,2013-09-05 07:45:00,
2013-09-05 00:50:00,74.3,48.6,29.94,South,180,0.0,0.0,42,0.00,,,0.00,WUHU21623XXSP,2013-09-05 07:50:00,
2013-09-05 00:55:00,73.9,49.9,29.94,South,180,0.0,0.0,43,0.00,,,0.00,WUHU21623XXSP,2013-09-05 07:55:00,
2013-09-05 01:00:00,73.6,48.4,29.94,South,180,0.0,0.0,41,0.00,,,0.00,WUHU21623XXSP,2013-09-05 08:00:00,
2013-09-05 01:05:00,73.4,48.3,29.94,South,180,0.0,0.0,41,0.00,,,0.00,WUHU21623XXSP,2013-09-05 08:05:00,
2013-09-05 01:10:00,73.6,47.8,29.94,South,180,0.0,0.0,40,0.00,,,0.00,WUHU21623XXSP,2013-09-05 08:10:00,
2013-09-05 01:15:00,73.6,47.8,29.94,South,180,0.0,0.0,40,0.00,,,0.00,WUHU21623XXSP,2013-09-05 08:15:00,
2013-09-05 01:20:00,73.2,47.5,29.94,South,180,0.0,0.0,40,0.00,,,0.00,WUHU21623XXSP,2013-09-05 08:20:00,
2013-09-05 01:25:00,73.2,47.5,29.94,South,180,0.0,0.0,40,0.00,,,0.00,WUHU21623XXSP,2013-09-05 08:25:00,
2013-09-05 01:30:00,73.2,47.5,29.94,South,180,0.0,0.0,40,0.00,,,0.00,WUHU21623XXSP,2013-09-05 08:30:00,
2013-09-05 01:35:00,73.2,46.7,29.93,South,180,0.0,0.0,39,0.00,,,0.00,WUHU21623XXSP,2013-09-05 08:35:00,
2013-09-05 01:40:00,73.4,46.9,29.93,South,180,0.0,0.0,39,0.00,,,0.00,WUHU21623XXSP,2013-09-05 08:40:00,
2013-09-05 01:45:00,73.6,47.1,29.93,South,180,0.0,0.0,39,0.00,,,0.00,WUHU21623XXSP,2013-09-05 08:45:00,
2013-09-05 01:50:00,73.6,47.1,29.92,South,180,20.4,20.4,39,0.00,,,0.00,WUHU21623XXSP,2013-09-05 08:50:00,
2013-09-05 01:55:00,73.6,47.1,29.93,South,180,0.0,20.4,39,0.00,,,0.00,WUHU21623XXSP,2013-09-05 08:55:00,
2013-09-05 02:00:00,73.8,47.2,29.93,South,180,0.0,0.0,39,0.00,,,0.00,WUHU21623XXSP,2013-09-05 09:00:00,
2013-09-05 02:05:00,73.6,47.1,29.93,South,180,0.0,0.0,39,0.00,,,0.00,WUHU21623XXSP,2013-09-05 09:05:00,
2013-09-05 02:10:00,73.6,47.1,29.93,South,180,0.0,0.0,39,0.00,,,0.00,WUHU21623XXSP,2013-09-05 09:10:00,
2013-09-05 02:15:00,73.2,46.7,29.92,South,180,0.0,13.2,39,0.00,,,0.00,WUHU21623XXSP,2013-09-05 09:15:00,
2013-09-05 02:20:00,73.2,46.7,29.92,South,180,14.5,14.5,39,0.00,,,0.00,WUHU21623XXSP,2013-09-05 09:20:00,
2013-09-05 02:25:00,73.2,46.7,29.92,South,180,9.2,14.5,39,0.00,,,0.00,WUHU21623XXSP,2013-09-05 09:25:00,
2013-09-05 02:30:00,73.2,46.7,29.92,South,180,0.0,9.2,39,0.00,,,0.00,WUHU21623XXSP,2013-09-05 09:30:00,
2013-09-05 02:36:00,73.2,46.0,29.92,South,180,0.0,0.0,38,0.00,,,0.00,WUHU21623XXSP,2013-09-05 09:36:00,
2013-09-05 02:41:00,73.0,45.8,29.91,South,180,0.0,0.0,38,0.00,,,0.00,WUHU21623XXSP,2013-09-05 09:41:00,
2013-09-05 02:46:00,72.7,46.3,29.91,South,180,0.0,0.0,39,0.00,,,0.00,WUHU21623XXSP,2013-09-05 09:46:00,
2013-09-05 02:51:00,72.7,47.0,29.91,South,180,0.0,0.0,40,0.00,,,0.00,WUHU21623XXSP,2013-09-05 09:51:00,
2013-09-05 02:56:00,72.7,47.0,29.91,South,180,0.0,0.0,40,0.00,,,0.00,WUHU21623XXSP,2013-09-05 09:56:00,
2013-09-05 03:01:00,72.3,47.3,29.91,South,180,0.0,0.0,41,0.00,,,0.00,WUHU21623XXSP,2013-09-05 10:01:00,
2013-09-05 03:06:00,72.1,47.1,29.91,South,180,0.0,0.0,41,0.00,,,0.00,WUHU21623XXSP,2013-09-05 10:06:00,
2013-09-05 03:11:00,71.8,46.8,29.91,South,180,0.0,0.0,41,0.00,,,0.00,WUHU21623XXSP,2013-09-05 10:11:00,
2013-09-05 03:16:00,71.8,46.8,29.91,South,180,0.0,0.0,41,0.00,,,0.00,WUHU21623XXSP,2013-09-05 10:16:00,
2013-09-05 03:21:00,71.4,46.8,29.91,South,180,0.0,0.0,42,0.00,,,0.00,WUHU21623XXSP,2013-09-05 10:21:00,
2013-09-05 03:26:00,71.2,46.9,29.91,South,180,0.0,0.0,42,0.00,,,0.00,WUHU21623XXSP,2013-09-05 10:26:00,
2013-09-05 03:31:00,71.2,46.9,29.92,South,180,0.0,0.0,42,0.00,,,0.00,WUHU21623XXSP,2013-09-05 10:31:00,
2013-09-05 03:36:00,71.2,47.5,29.91,South,180,0.0,0.0,43,0.00,,,0.00,WUHU21623XXSP,2013-09-05 10:36:00,
2013-09-05 03:41:00,71.1,47.5,29.91,South,180,0.0,0.0,43,0.00,,,0.00,WUHU21623XXSP,2013-09-05 10:41:00,
2013-09-05 03:46:00,70.9,47.2,29.92,South,180,0.0,0.0,43,0.00,,,0.00,WUHU21623XXSP,2013-09-05 10:46:00,
2013-09-05 03:51:00,70.5,46.9,29.91,South,180,0.0,0.0,43,0.00,,,0.00,WUHU21623XXSP,2013-09-05 10:51:00,
2013-09-05 03:56:00,70.5,46.9,29.92,South,180,0.0,0.0,43,0.00,,,0.00,WUHU21623XXSP,2013-09-05 10:56:00,
2013-09-05 04:01:00,70.5,46.9,29.92,South,180,0.0,0.0,43,0.00,,,0.00,WUHU21623XXSP,2013-09-05 11:01:00,
2013-09-05 04:06:00,70.5,46.9,29.92,South,180,0.0,0.0,43,0.00,,,0.00,WUHU21623XXSP,2013-09-05 11:06:00,
2013-09-05 04:11:00,70.5,46.9,29.92,South,180,0.0,0.0,43,0.00,,,0.00,WUHU21623XXSP,2013-09-05 11:11:00,
2013-09-05 04:16:00,70.5,46.9,29.92,South,180,0.0,0.0,42,0.00,,,0.00,WUHU21623XXSP,2013-09-05 11:16:00,
2013-09-05 04:21:00,70.3,46.7,29.93,South,180,0.0,0.0,43,0.00,,,0.00,WUHU21623XXSP,2013-09-05 11:21:00,
2013-09-05 04:26:00,70.3,46.7,29.93,South,180,0.0,0.0,43,0.00,,,0.00,WUHU21623XXSP,2013-09-05 11:26:00,
2013-09-05 04:31:00,70.3,46.7,29.92,South,180,0.0,0.0,43,0.00,,,0.00,WUHU21623XXSP,2013-09-05 11:31:00,
2013-09-05 04:36:00,70.3,46.1,29.93,South,180,0.0,0.0,42,0.00,,,0.00,WUHU21623XXSP,2013-09-05 11:36:00,
2013-09-05 04:41:00,70.2,45.9,29.93,South,180,0.0,0.0,42,0.00,,,0.00,WUHU21623XXSP,2013-09-05 11:41:00,
2013-09-05 04:46:00,70.0,46.4,29.93,South,180,0.0,0.0,43,0.00,,,0.00,WUHU21623XXSP,2013-09-05 11:46:00,
2013-09-05 04:51:00,69.6,46.0,29.92,South,180,0.0,0.0,43,0.00,,,0.00,WUHU21623XXSP,2013-09-05 11:51:00,
2013-09-05 04:57:00,69.6,46.0,29.92,South,180,0.0,0.0,43,0.00,,,0.00,WUHU21623XXSP,2013-09-05 11:57:00,
2013-09-05 05:02:00,69.6,46.0,29.92,South,180,0.0,0.0,43,0.00,,,0.00,WUHU21623XXSP,2013-09-05 12:02:00,
2013-09-05 05:07:00,69.6,46.0,29.92,South,180,0.0,0.0,43,0.00,,,0.00,WUHU21623XXSP,2013-09-05 12:07:00,
2013-09-05 05:12:00,69.4,45.9,29.92,South,180,0.0,0.0,43,0.00,,,0.00,WUHU21623XXSP,2013-09-05 12:12:00,
2013-09-05 05:17:00,69.4,45.9,29.92,South,180,0.0,0.0,43,0.00,,,0.00,WUHU21623XXSP,2013-09-05 12:17:00,
2013-09-05 05:22:00,69.4,45.9,29.93,South,180,0.0,0.0,43,0.00,,,0.00,WUHU21623XXSP,2013-09-05 12:22:00,
2013-09-05 05:27:00,69.4,45.9,29.93,South,180,0.0,0.0,43,0.00,,,0.00,WUHU21623XXSP,2013-09-05 12:27:00,
2013-09-05 05:32:00,69.4,45.9,29.93,South,180,0.0,0.0,43,0.00,,,0.00,WUHU21623XXSP,2013-09-05 12:32:00,
2013-09-05 05:37:00,69.4,46.5,29.93,South,180,0.0,0.0,44,0.00,,,0.00,WUHU21623XXSP,2013-09-05 12:37:00,
2013-09-05 05:42:00,69.6,46.0,29.93,South,180,0.0,0.0,43,0.00,,,0.00,WUHU21623XXSP,2013-09-05 12:42:00,
2013-09-05 05:47:00,69.6,46.0,29.94,South,180,0.0,0.0,43,0.00,,,0.00,WUHU21623XXSP,2013-09-05 12:47:00,
2013-09-05 05:52:00,69.4,46.5,29.94,South,180,0.0,0.0,44,0.00,,,0.00,WUHU21623XXSP,2013-09-05 12:52:00,
2013-09-05 05:57:00,69.4,46.5,29.94,South,180,0.0,0.0,44,0.00,,,0.00,WUHU21623XXSP,2013-09-05 12:57:00,
2013-09-05 06:02:00,69.4,47.1,29.94,South,180,0.0,0.0,45,0.00,,,0.00,WUHU21623XXSP,2013-09-05 13:02:00,
2013-09-05 06:08:00,69.4,47.1,29.94,South,180,0.0,0.0,45,0.00,,,0.00,WUHU21623XXSP,2013-09-05 13:08:00,
2013-09-05 06:13:00,69.1,47.3,29.94,South,180,0.0,0.0,46,0.00,,,0.00,WUHU21623XXSP,2013-09-05 13:13:00,
2013-09-05 06:18:00,68.9,46.6,29.94,South,180,0.0,0.0,45,0.00,,,0.00,WUHU21623XXSP,2013-09-05 13:18:00,
2013-09-05 06:23:00,68.7,47.0,29.94,South,180,0.0,0.0,46,0.00,,,0.00,WUHU21623XXSP,2013-09-05 13:23:00,
2013-09-05 06:28:00,68.5,46.3,29.95,South,180,0.0,0.0,45,0.00,,,0.00,WUHU21623XXSP,2013-09-05 13:28:00,
2013-09-05 06:33:00,68.4,46.3,29.95,South,180,0.0,0.0,45,0.00,,,0.00,WUHU21623XXSP,2013-09-05 13:33:00,
2013-09-05 06:38:00,68.2,46.5,29.95,South,180,0.0,0.0,46,0.00,,,0.00,WUHU21623XXSP,2013-09-05 13:38:00,
2013-09-05 06:43:00,67.8,46.8,29.95,South,180,0.0,0.0,47,0.00,,,0.00,WUHU21623XXSP,2013-09-05 13:43:00,
2013-09-05 06:48:00,67.8,46.8,29.95,South,180,0.0,0.0,47,0.00,,,0.00,WUHU21623XXSP,2013-09-05 13:48:00,
2013-09-05 06:53:00,68.2,46.5,29.95,South,180,0.0,0.0,46,0.00,,,0.00,WUHU21623XXSP,2013-09-05 13:53:00,
2013-09-05 06:58:00,68.5,46.9,29.96,South,180,0.0,0.0,46,0.00,,,0.00,WUHU21623XXSP,2013-09-05 13:58:00,
2013-09-05 07:03:00,68.7,46.4,29.96,South,180,0.0,0.0,45,0.00,,,0.00,WUHU21623XXSP,2013-09-05 14:03:00,
2013-09-05 07:08:00,68.7,46.4,29.96,South,180,0.0,0.0,45,0.00,,,0.00,WUHU21623XXSP,2013-09-05 14:08:00,
2013-09-05 07:13:00,69.1,46.7,29.96,South,180,0.0,0.0,45,0.00,,,0.00,WUHU21623XXSP,2013-09-05 14:13:00,
2013-09-05 07:18:00,69.1,46.7,29.96,South,180,0.0,0.0,45,0.00,,,0.00,WUHU21623XXSP,2013-09-05 14:18:00,
2013-09-05 07:24:00,69.6,47.2,29.96,South,180,0.0,0.0,45,0.00,,,0.00,WUHU21623XXSP,2013-09-05 14:24:00,
2013-09-05 07:29:00,70.0,47.6,29.96,South,180,0.0,0.0,45,0.00,,,0.00,WUHU21623XXSP,2013-09-05 14:29:00,
2013-09-05 07:35:00,70.3,47.1,29.96,South,180,0.0,0.0,44,0.00,,,0.00,WUHU21623XXSP,2013-09-05 14:35:00,
2013-09-05 07:40:00,70.3,47.3,29.96,South,180,0.0,0.0,44,0.00,,,0.00,WUHU21623XXSP,2013-09-05 14:40:00,
2013-09-05 07:45:00,70.7,47.6,29.96,South,180,0.0,14.5,44,0.00,,,0.00,WUHU21623XXSP,2013-09-05 14:45:00,
2013-09-05 07:50:00,71.2,47.5,29.96,South,180,0.0,14.5,43,0.00,,,0.00,WUHU21623XXSP,2013-09-05 14:50:00,
2013-09-05 07:55:00,71.4,47.7,29.96,South,180,0.0,11.6,43,0.00,,,0.00,WUHU21623XXSP,2013-09-05 14:55:00,
2013-09-05 08:00:00,71.8,48.0,29.96,South,180,0.0,0.0,43,0.00,,,0.00,WUHU21623XXSP,2013-09-05 15:00:00,
2013-09-05 08:05:00,71.8,48.0,29.96,South,180,0.0,0.0,43,0.00,,,0.00,WUHU21623XXSP,2013-09-05 15:05:00,
2013-09-05 08:10:00,72.1,48.3,29.96,South,180,0.0,0.0,43,0.00,,,0.00,WUHU21623XXSP,2013-09-05 15:10:00,
2013-09-05 08:15:00,72.9,47.9,29.96,South,180,0.0,19.2,42,0.00,,,0.00,WUHU21623XXSP,2013-09-05 15:15:00,
2013-09-05 08:20:00,73.2,48.7,29.96,South,180,0.0,19.2,42,0.00,,,0.00,WUHU21623XXSP,2013-09-05 15:20:00,
2013-09-05 08:25:00,73.9,48.7,29.96,South,180,7.8,13.2,41,0.00,,,0.00,WUHU21623XXSP,2013-09-05 15:25:00,
2013-09-05 08:30:00,74.8,49.0,29.96,South,180,16.6,16.6,40,0.00,,,0.00,WUHU21623XXSP,2013-09-05 15:30:00,
2013-09-05 08:35:00,75.6,48.8,29.96,South,180,17.2,17.2,39,0.00,,,0.00,WUHU21623XXSP,2013-09-05 15:35:00,
2013-09-05 08:40:00,76.8,49.2,29.96,South,180,17.4,22.8,38,0.00,,,0.00,WUHU21623XXSP,2013-09-05 15:40:00,
2013-09-05 08:46:00,79.0,49.6,29.96,South,180,21.5,22.8,36,0.00,,,0.00,WUHU21623XXSP,2013-09-05 15:46:00,
2013-09-05 08:51:00,80.2,49.2,29.96,South,180,0.0,25.1,34,0.00,,,0.00,WUHU21623XXSP,2013-09-05 15:51:00,
2013-09-05 08:56:00,80.8,49.6,29.96,South,180,13.0,25.1,34,0.00,,,0.00,WUHU21623XXSP,2013-09-05 15:56:00,
2013-09-05 09:01:00,82.6,49.6,29.96,South,180,0.0,13.0,32,0.00,,,0.00,WUHU21623XXSP,2013-09-05 16:01:00,
2013-09-05 09:06:00,83.8,49.9,29.95,South,180,0.0,23.9,31,0.00,,,0.00,WUHU21623XXSP,2013-09-05 16:06:00,
2013-09-05 09:11:00,84.4,49.6,29.96,South,180,17.4,23.9,30,0.00,,,0.00,WUHU21623XXSP,2013-09-05 16:11:00,
2013-09-05 09:16:00,85.1,49.2,29.96,South,180,16.8,21.3,29,0.00,,,0.00,WUHU21623XXSP,2013-09-05 16:16:00,
2013-09-05 09:21:00,86.2,50.1,29.96,South,180,11.4,21.3,29,0.00,,,0.00,WUHU21623XXSP,2013-09-05 16:21:00,
2013-09-05 09:26:00,87.1,49.8,29.96,South,180,20.4,21.9,28,0.00,,,0.00,WUHU21623XXSP,2013-09-05 16:26:00,
2013-09-05 09:32:00,87.6,50.2,29.96,South,180,15.7,21.9,28,0.00,,,0.00,WUHU21623XXSP,2013-09-05 16:32:00,
2013-09-05 09:37:00,88.2,49.6,29.97,South,180,21.9,23.0,27,0.00,,,0.00,WUHU21623XXSP,2013-09-05 16:37:00,
2013-09-05 09:42:00,88.3,49.8,29.97,SE,135,11.9,23.0,27,0.00,,,0.00,WUHU21623XXSP,2013-09-05 16:42:00,
2013-09-05 09:47:00,89.4,50.7,29.97,SE,135,0.0,23.3,27,0.00,,,0.00,WUHU21623XXSP,2013-09-05 16:47:00,
2013-09-05 09:52:00,90.5,50.6,29.97,SE,135,10.3,23.3,26,0.00,,,0.00,WUHU21623XXSP,2013-09-05 16:52:00,
2013-09-05 09:57:00,90.7,49.7,29.96,SE,135,0.0,26.4,25,0.00,,,0.00,WUHU21623XXSP,2013-09-05 16:57:00,
2013-09-05 10:02:00,91.0,50.0,29.96,SE,135,15.9,26.4,25,0.00,,,0.00,WUHU21623XXSP,2013-09-05 17:02:00,
2013-09-05 10:07:00,91.9,50.6,29.97,ESE,112,16.1,23.5,25,0.00,,,0.00,WUHU21623XXSP,2013-09-05 17:07:00,
2013-09-05 10:12:00,92.8,50.3,29.97,ESE,112,17.7,23.5,24,0.00,,,0.00,WUHU21623XXSP,2013-09-05 17:12:00,
2013-09-05 10:17:00,93.0,50.5,29.96,ESE,112,21.7,21.7,24,0.00,,,0.00,WUHU21623XXSP,2013-09-05 17:17:00,
2013-09-05 10:22:00,93.7,51.1,29.96,ESE,112,0.7,21.7,24,0.00,,,0.00,WUHU21623XXSP,2013-09-05 17:22:00,
2013-09-05 10:27:00,93.7,49.9,29.97,ESE,112,19.0,19.0,23,0.00,,,0.00,WUHU21623XXSP,2013-09-05 17:27:00,
2013-09-05 10:32:00,94.3,50.4,29.97,ESE,112,0.7,19.0,23,0.00,,,0.00,WUHU21623XXSP,2013-09-05 17:32:00,
2013-09-05 10:37:00,94.1,50.3,29.96,ESE,112,5.8,19.0,23,0.00,,,0.00,WUHU21623XXSP,2013-09-05 17:37:00,
2013-09-05 10:42:00,95.0,51.0,29.96,NE,45,5.6,16.3,23,0.00,,,0.00,WUHU21623XXSP,2013-09-05 17:42:00,
2013-09-05 10:47:00,95.7,51.6,29.96,NE,45,0.0,16.3,23,0.00,,,0.00,WUHU21623XXSP,2013-09-05 17:47:00,
2013-09-05 10:52:00,96.4,50.1,29.96,NE,45,0.0,0.0,21,0.00,,,0.00,WUHU21623XXSP,2013-09-05 17:52:00,
2013-09-05 10:57:00,95.7,49.4,29.96,ESE,112,0.0,0.0,21,0.00,,,0.00,WUHU21623XXSP,2013-09-05 17:57:00,
2013-09-05 11:02:00,95.7,49.4,29.96,SE,135,0.0,0.4,21,0.00,,,0.00,WUHU21623XXSP,2013-09-05 18:02:00,
2013-09-05 11:08:00,96.1,49.7,29.96,ESE,112,0.0,6.5,21,0.00,,,0.00,WUHU21623XXSP,2013-09-05 18:08:00,
2013-09-05 11:13:00,96.6,50.2,29.96,ESE,112,5.6,6.5,21,0.00,,,0.00,WUHU21623XXSP,2013-09-05 18:13:00,
2013-09-05 11:18:00,97.3,49.7,29.95,NE,45,2.0,5.6,20,0.00,,,0.00,WUHU21623XXSP,2013-09-05 18:18:00,
2013-09-05 11:23:00,97.3,50.8,29.95,ESE,112,0.0,4.3,21,0.00,,,0.00,WUHU21623XXSP,2013-09-05 18:23:00,
2013-09-05 11:28:00,98.2,50.4,29.95,ESE,112,0.9,4.3,20,0.00,,,0.00,WUHU21623XXSP,2013-09-05 18:28:00,
2013-09-05 11:33:00,98.2,50.4,29.95,SSE,157,2.0,4.5,20,0.00,,,0.00,WUHU21623XXSP,2013-09-05 18:33:00,
2013-09-05 11:38:00,98.2,50.3,29.95,East,90,8.7,9.2,20,0.00,,,0.00,WUHU21623XXSP,2013-09-05 18:38:00,
2013-09-05 11:43:00,98.4,50.6,29.95,East,90,0.0,9.2,20,0.00,,,0.00,WUHU21623XXSP,2013-09-05 18:43:00,
2013-09-05 11:48:00,99.3,49.8,29.95,SSE,157,3.1,4.3,19,0.00,,,0.00,WUHU21623XXSP,2013-09-05 18:48:00,
2013-09-05 11:53:00,99.3,49.8,29.95,SE,135,0.0,4.3,19,0.00,,,0.00,WUHU21623XXSP,2013-09-05 18:53:00,
2013-09-05 11:58:00,99.3,49.8,29.95,ESE,112,3.8,5.1,19,0.00,,,0.00,WUHU21623XXSP,2013-09-05 18:58:00,
2013-09-05 12:03:00,99.3,49.8,29.95,ESE,112,7.6,7.6,19,0.00,,,0.00,WUHU21623XXSP,2013-09-05 19:03:00,
2013-09-05 12:08:00,98.8,49.4,29.95,SE,135,0.0,7.6,19,0.00,,,0.00,WUHU21623XXSP,2013-09-05 19:08:00,
2013-09-05 12:13:00,99.3,49.8,29.95,ESE,112,0.0,2.9,19,0.00,,,0.00,WUHU21623XXSP,2013-09-05 19:13:00,
2013-09-05 12:18:00,99.3,51.3,29.95,ESE,112,0.9,8.1,20,0.00,,,0.00,WUHU21623XXSP,2013-09-05 19:18:00,
2013-09-05 12:23:00,99.5,50.0,29.95,ESE,112,0.0,8.1,19,0.00,,,0.00,WUHU21623XXSP,2013-09-05 19:23:00,
2013-09-05 12:28:00,100.2,50.5,29.95,ESE,112,5.6,5.6,19,0.00,,,0.00,WUHU21623XXSP,2013-09-05 19:28:00,
2013-09-05 12:33:00,100.8,51.0,29.95,SE,135,3.4,5.6,19,0.00,,,0.00,WUHU21623XXSP,2013-09-05 19:33:00,
2013-09-05 12:38:00,100.8,50.5,29.94,ESE,112,0.0,5.6,18,0.00,,,0.00,WUHU21623XXSP,2013-09-05 19:38:00,
2013-09-05 12:43:00,100.8,51.0,29.94,ESE,112,0.0,0.0,19,0.00,,,0.00,WUHU21623XXSP,2013-09-05 19:43:00,
2013-09-05 12:48:00,101.1,47.3,29.94,WSW,247,5.6,6.3,17,0.00,,,0.00,WUHU21623XXSP,2013-09-05 19:48:00,
2013-09-05 12:53:00,101.5,51.6,29.94,WSW,247,0.0,6.3,19,0.00,,,0.00,WUHU21623XXSP,2013-09-05 19:53:00,
2013-09-05 12:58:00,102.4,48.3,29.94,SE,135,0.0,0.0,17,0.00,,,0.00,WUHU21623XXSP,2013-09-05 19:58:00,
2013-09-05 13:03:00,102.0,48.0,29.94,SW,225,3.6,10.5,17,0.00,,,0.00,WUHU21623XXSP,2013-09-05 20:03:00,
2013-09-05 13:08:00,102.0,49.8,29.93,SSE,157,1.3,10.5,18,0.00,,,0.00,WUHU21623XXSP,2013-09-05 20:08:00,
2013-09-05 13:14:00,102.0,48.0,29.93,ESE,112,0.0,3.4,17,0.00,,,0.00,WUHU21623XXSP,2013-09-05 20:14:00,
2013-09-05 13:19:00,102.6,48.4,29.93,South,180,4.7,4.7,17,0.00,,,0.00,WUHU21623XXSP,2013-09-05 20:19:00,
2013-09-05 13:24:00,102.7,46.8,29.92,SW,225,11.6,11.6,16,0.00,,,0.00,WUHU21623XXSP,2013-09-05 20:24:00,
2013-09-05 13:29:00,102.9,48.7,29.92,South,180,6.3,11.6,17,0.00,,,0.00,WUHU21623XXSP,2013-09-05 20:29:00,
2013-09-05 13:34:00,103.3,49.0,29.92,SE,135,11.0,11.0,17,0.00,,,0.00,WUHU21623XXSP,2013-09-05 20:34:00,
2013-09-05 13:39:00,102.9,48.7,29.92,SSE,157,0.0,11.0,17,0.00,,,0.00,WUHU21623XXSP,2013-09-05 20:39:00,
2013-09-05 13:44:00,102.7,48.6,29.92,ENE,67,4.0,11.6,17,0.00,,,0.00,WUHU21623XXSP,2013-09-05 20:44:00,
2013-09-05 13:49:00,102.6,48.4,29.92,SE,135,2.9,11.6,17,0.00,,,0.00,WUHU21623XXSP,2013-09-05 20:49:00,
2013-09-05 13:54:00,102.9,45.1,29.92,South,180,8.1,12.3,15,0.00,,,0.00,WUHU21623XXSP,2013-09-05 20:54:00,
2013-09-05 14:00:00,102.4,44.7,29.92,SSE,157,4.3,12.3,15,0.00,,,0.00,WUHU21623XXSP,2013-09-05 21:00:00,
2013-09-05 14:05:00,102.0,44.4,29.91,SW,225,8.9,8.9,15,0.00,,,0.00,WUHU21623XXSP,2013-09-05 21:05:00,
2013-09-05 14:10:00,102.7,44.9,29.92,SE,135,3.1,8.9,15,0.00,,,0.00,WUHU21623XXSP,2013-09-05 21:10:00,
2013-09-05 14:15:00,103.1,45.2,29.92,South,180,11.6,11.6,15,0.00,,,0.00,WUHU21623XXSP,2013-09-05 21:15:00,
2013-09-05 14:20:00,102.7,44.9,29.91,SW,225,10.1,21.0,15,0.00,,,0.00,WUHU21623XXSP,2013-09-05 21:20:00,
2013-09-05 14:25:00,102.4,44.7,29.91,WSW,247,1.3,21.0,15,0.00,,,0.00,WUHU21623XXSP,2013-09-05 21:25:00,
2013-09-05 14:30:00,102.7,48.6,29.91,SE,135,4.3,10.1,17,0.00,,,0.00,WUHU21623XXSP,2013-09-05 21:30:00,
2013-09-05 14:35:00,103.6,47.5,29.90,SSW,202,7.4,7.4,16,0.00,,,0.00,WUHU21623XXSP,2013-09-05 21:35:00,
2013-09-05 14:40:00,103.3,47.2,29.90,South,180,0.0,7.4,16,0.00,,,0.00,WUHU21623XXSP,2013-09-05 21:40:00,
2013-09-05 14:45:00,103.8,47.6,29.89,SSE,157,3.8,5.4,16,0.00,,,0.00,WUHU21623XXSP,2013-09-05 21:45:00,
2013-09-05 14:50:00,103.5,47.3,29.89,South,180,0.0,5.4,16,0.00,,,0.00,WUHU21623XXSP,2013-09-05 21:50:00,
2013-09-05 14:55:00,103.8,47.6,29.89,ENE,67,6.7,6.7,16,0.00,,,0.00,WUHU21623XXSP,2013-09-05 21:55:00,
2013-09-05 15:00:00,104.5,46.3,29.89,SE,135,0.0,6.7,15,0.00,,,0.00,WUHU21623XXSP,2013-09-05 22:00:00,
2013-09-05 15:05:00,105.4,45.2,29.89,SE,135,3.6,7.2,14,0.00,,,0.00,WUHU21623XXSP,2013-09-05 22:05:00,
2013-09-05 15:10:00,105.1,44.9,29.88,SSE,157,0.0,8.1,14,0.00,,,0.00,WUHU21623XXSP,2013-09-05 22:10:00,
2013-09-05 15:15:00,104.9,44.8,29.88,SE,135,0.0,8.1,14,0.00,,,0.00,WUHU21623XXSP,2013-09-05 22:15:00,
2013-09-05 15:20:00,105.3,45.2,29.88,South,180,9.8,9.8,14,0.00,,,0.00,WUHU21623XXSP,2013-09-05 22:20:00,
2013-09-05 15:25:00,105.1,44.9,29.87,SSW,202,11.2,11.2,14,0.00,,,0.00,WUHU21623XXSP,2013-09-05 22:25:00,
2013-09-05 15:30:00,104.4,42.6,29.88,SSW,202,20.8,20.8,13,0.00,,,0.00,WUHU21623XXSP,2013-09-05 22:30:00,
2013-09-05 15:35:00,104.2,44.3,29.88,South,180,13.2,20.8,13,0.00,,,0.00,WUHU21623XXSP,2013-09-05 22:35:00,
2013-09-05 15:40:00,104.7,42.8,29.88,South,180,13.0,13.2,13,0.00,,,0.00,WUHU21623XXSP,2013-09-05 22:40:00,
2013-09-05 15:45:00,104.5,42.7,29.88,SW,225,6.7,17.2,13,0.00,,,0.00,WUHU21623XXSP,2013-09-05 22:45:00,
2013-09-05 15:50:00,104.2,42.4,29.88,SSW,202,0.0,17.2,13,0.00,,,0.00,WUHU21623XXSP,2013-09-05 22:50:00,
2013-09-05 15:55:00,104.2,42.4,29.88,SSW,202,10.7,15.9,13,0.00,,,0.00,WUHU21623XXSP,2013-09-05 22:55:00,
2013-09-05 16:00:00,103.8,42.2,29.88,South,180,7.4,12.8,13,0.00,,,0.00,WUHU21623XXSP,2013-09-05 23:00:00,
2013-09-05 16:05:00,103.6,42.0,29.89,South,180,9.2,16.1,13,0.00,,,0.00,WUHU21623XXSP,2013-09-05 23:05:00,
2013-09-05 16:10:00,103.6,42.0,29.88,South,180,3.6,16.1,13,0.00,,,0.00,WUHU21623XXSP,2013-09-05 23:10:00,
2013-09-05 16:15:00,103.8,42.2,29.88,SE,135,5.1,9.2,13,0.00,,,0.00,WUHU21623XXSP,2013-09-05 23:15:00,
2013-09-05 16:20:00,103.8,42.0,29.88,South,180,3.8,6.3,13,0.00,,,0.00,WUHU21623XXSP,2013-09-05 23:20:00,
2013-09-05 16:25:00,103.6,42.0,29.88,SW,225,13.2,13.2,13,0.00,,,0.00,WUHU21623XXSP,2013-09-05 23:25:00,
2013-09-05 16:30:00,102.9,41.5,29.88,SW,225,9.2,17.9,13,0.00,,,0.00,WUHU21623XXSP,2013-09-05 23:30:00,
2013-09-05 16:35:00,102.9,43.3,29.88,SSW,202,15.7,17.9,14,0.00,,,0.00,WUHU21623XXSP,2013-09-05 23:35:00,
2013-09-05 16:40:00,102.9,41.5,29.87,SSE,157,10.5,15.7,13,0.00,,,0.00,WUHU21623XXSP,2013-09-05 23:40:00,
2013-09-05 16:46:00,103.1,41.6,29.87,South,180,9.8,15.7,13,0.00,,,0.00,WUHU21623XXSP,2013-09-05 23:46:00,
2013-09-05 16:51:00,103.3,41.7,29.87,WSW,247,18.8,18.8,13,0.00,,,0.00,WUHU21623XXSP,2013-09-05 23:51:00,
2013-09-05 16:56:00,103.3,39.9,29.87,WSW,247,2.2,18.8,12,0.00,,,0.00,WUHU21623XXSP,2013-09-05 23:56:00,
2013-09-05 17:01:00,102.9,39.6,29.86,South,180,2.9,12.1,12,0.00,,,0.00,WUHU21623XXSP,2013-09-06 00:01:00,
2013-09-05 17:06:00,102.9,39.6,29.87,WSW,247,10.7,11.4,12,0.00,,,0.00,WUHU21623XXSP,2013-09-06 00:06:00,
2013-09-05 17:11:00,102.4,39.2,29.87,SSW,202,6.3,15.2,12,0.00,,,0.00,WUHU21623XXSP,2013-09-06 00:11:00,
2013-09-05 17:16:00,101.8,40.6,29.87,SSW,202,19.2,19.2,13,0.00,,,0.00,WUHU21623XXSP,2013-09-06 00:16:00,
2013-09-05 17:21:00,101.3,40.2,29.87,SSW,202,17.9,19.2,13,0.00,,,0.00,WUHU21623XXSP,2013-09-06 00:21:00,
2013-09-05 17:26:00,101.5,40.3,29.87,WSW,247,12.5,17.9,13,0.00,,,0.00,WUHU21623XXSP,2013-09-06 00:26:00,
2013-09-05 17:31:00,101.5,42.2,29.87,WSW,247,4.9,12.5,14,0.00,,,0.00,WUHU21623XXSP,2013-09-06 00:31:00,
2013-09-05 17:36:00,101.3,42.0,29.87,WSW,247,9.2,14.3,14,0.00,,,0.00,WUHU21623XXSP,2013-09-06 00:36:00,
2013-09-05 17:41:00,100.8,41.6,29.87,WSW,247,13.6,15.2,14,0.00,,,0.00,WUHU21623XXSP,2013-09-06 00:41:00,
2013-09-05 17:46:00,100.0,41.1,29.87,WSW,247,8.9,15.2,14,0.00,,,0.00,WUHU21623XXSP,2013-09-06 00:46:00,
2013-09-05 17:51:00,100.0,41.1,29.87,WSW,247,12.8,12.8,14,0.00,,,0.00,WUHU21623XXSP,2013-09-06 00:51:00,
2013-09-05 17:56:00,100.0,41.1,29.87,WSW,247,10.3,12.8,14,0.00,,,0.00,WUHU21623XXSP,2013-09-06 00:56:00,
2013-09-05 18:01:00,99.9,40.9,29.87,WSW,247,6.3,12.8,14,0.00,,,0.00,WUHU21623XXSP,2013-09-06 01:01:00,
2013-09-05 18:06:00,99.3,40.5,29.86,WSW,247,13.9,14.3,14,0.00,,,0.00,WUHU21623XXSP,2013-09-06 01:06:00,
2013-09-05 18:11:00,99.3,42.3,29.87,SSW,202,11.0,14.3,15,0.00,,,0.00,WUHU21623XXSP,2013-09-06 01:11:00,
2013-09-05 18:16:00,99.1,42.2,29.87,SSW,202,14.1,14.1,15,0.00,,,0.00,WUHU21623XXSP,2013-09-06 01:16:00,
2013-09-05 18:21:00,98.6,41.7,29.86,SSW,202,5.6,14.1,15,0.00,,,0.00,WUHU21623XXSP,2013-09-06 01:21:00,
2013-09-05 18:26:00,98.6,41.7,29.87,SW,225,7.4,12.3,15,0.00,,,0.00,WUHU21623XXSP,2013-09-06 01:26:00,
2013-09-05 18:31:00,98.2,41.4,29.86,SSW,202,3.1,9.8,15,0.00,,,0.00,WUHU21623XXSP,2013-09-06 01:31:00,
2013-09-05 18:36:00,97.7,42.8,29.87,SSW,202,8.9,9.8,16,0.00,,,0.00,WUHU21623XXSP,2013-09-06 01:36:00,
2013-09-05 18:41:00,97.3,44.3,29.87,SW,225,7.4,13.9,17,0.00,,,0.00,WUHU21623XXSP,2013-09-06 01:41:00,
2013-09-05 18:46:00,97.0,44.0,29.87,SW,225,11.6,13.9,17,0.00,,,0.00,WUHU21623XXSP,2013-09-06 01:46:00,
2013-09-05 18:51:00,96.6,43.7,29.87,SW,225,13.2,13.2,17,0.00,,,0.00,WUHU21623XXSP,2013-09-06 01:51:00,
2013-09-05 18:56:00,96.1,43.3,29.88,SSW,202,13.6,13.6,17,0.00,,,0.00,WUHU21623XXSP,2013-09-06 01:56:00,
2013-09-05 19:01:00,95.2,44.3,29.88,SW,225,11.6,13.6,18,0.00,,,0.00,WUHU21623XXSP,2013-09-06 02:01:00,
2013-09-05 19:06:00,94.8,44.0,29.88,SW,225,6.7,11.6,18,0.00,,,0.00,WUHU21623XXSP,2013-09-06 02:06:00,
2013-09-05 19:11:00,94.3,43.6,29.88,SSW,202,7.6,10.3,18,0.00,,,0.00,WUHU21623XXSP,2013-09-06 02:11:00,
2013-09-05 19:16:00,93.7,45.2,29.88,SW,225,7.4,10.5,19,0.00,,,0.00,WUHU21623XXSP,2013-09-06 02:16:00,
2013-09-05 19:21:00,93.4,45.0,29.88,SW,225,3.8,10.7,19,0.00,,,0.00,WUHU21623XXSP,2013-09-06 02:21:00,
2013-09-05 19:26:00,93.0,44.7,29.88,SW,225,4.3,10.7,19,0.00,,,0.00,WUHU21623XXSP,2013-09-06 02:26:00,
2013-09-05 19:31:00,92.5,45.6,29.88,SSW,202,8.7,9.4,20,0.00,,,0.00,WUHU21623XXSP,2013-09-06 02:31:00,
2013-09-05 19:36:00,92.1,45.4,29.88,SW,225,2.7,8.7,20,0.00,,,0.00,WUHU21623XXSP,2013-09-06 02:36:00,
2013-09-05 19:41:00,91.8,45.1,29.88,SW,225,5.4,5.4,20,0.00,,,0.00,WUHU21623XXSP,2013-09-06 02:41:00,
2013-09-05 19:46:00,91.2,44.6,29.89,SW,225,3.8,7.4,20,0.00,,,0.00,WUHU21623XXSP,2013-09-06 02:46:00,
2013-09-05 19:51:00,90.9,45.4,29.88,SSW,202,5.4,7.4,21,0.00,,,0.00,WUHU21623XXSP,2013-09-06 02:51:00,
2013-09-05 19:56:00,90.3,45.0,29.89,SSW,202,2.5,5.4,21,0.00,,,0.00,WUHU21623XXSP,2013-09-06 02:56:00,
2013-09-05 20:01:00,90.0,44.7,29.89,SSW,202,5.4,5.4,21,0.00,,,0.00,WUHU21623XXSP,2013-09-06 03:01:00,
2013-09-05 20:06:00,89.4,45.3,29.89,SSW,202,7.4,7.4,22,0.00,,,0.00,WUHU21623XXSP,2013-09-06 03:06:00,
2013-09-05 20:11:00,89.1,45.0,29.90,SSW,202,4.7,7.4,22,0.00,,,0.00,WUHU21623XXSP,2013-09-06 03:11:00,
2013-09-05 20:16:00,88.7,44.8,29.90,SSW,202,1.8,5.8,22,0.00,,,0.00,WUHU21623XXSP,2013-09-06 03:16:00,
2013-09-05 20:21:00,88.3,44.6,29.91,SSW,202,4.0,4.7,23,0.00,,,0.00,WUHU21623XXSP,2013-09-06 03:21:00,
2013-09-05 20:26:00,87.8,46.1,29.91,SSW,202,3.4,4.0,24,0.00,,,0.00,WUHU21623XXSP,2013-09-06 03:26:00,
2013-09-05 20:31:00,87.6,46.0,29.91,SSW,202,6.0,6.0,24,0.00,,,0.00,WUHU21623XXSP,2013-09-06 03:31:00,
2013-09-05 20:37:00,87.3,44.6,29.91,SSW,202,5.6,8.7,23,0.00,,,0.00,WUHU21623XXSP,2013-09-06 03:37:00,
2013-09-05 20:42:00,86.9,46.4,29.91,SW,225,3.8,8.7,25,0.00,,,0.00,WUHU21623XXSP,2013-09-06 03:42:00,
2013-09-05 20:47:00,86.5,46.1,29.91,SW,225,7.8,7.8,25,0.00,,,0.00,WUHU21623XXSP,2013-09-06 03:47:00,
2013-09-05 20:52:00,86.5,46.1,29.92,SSW,202,4.9,7.8,25,0.00,,,0.00,WUHU21623XXSP,2013-09-06 03:52:00,
2013-09-05 20:57:00,86.2,45.8,29.91,SSW,202,3.1,6.9,25,0.00,,,0.00,WUHU21623XXSP,2013-09-06 03:57:00,
2013-09-05 21:01:00,85.8,45.5,29.91,SSW,202,1.6,6.9,25,0.00,,,0.00,WUHU21623XXSP,2013-09-06 04:01:00,
2013-09-05 21:06:00,85.6,45.4,29.91,SSW,202,0.0,3.8,25,0.00,,,0.00,WUHU21623XXSP,2013-09-06 04:06:00,
2013-09-05 21:11:00,85.3,46.1,29.91,SSW,202,3.8,9.8,26,0.00,,,0.00,WUHU21623XXSP,2013-09-06 04:11:00,
2013-09-05 21:16:00,84.9,45.8,29.91,SSW,202,3.6,9.8,26,0.00,,,0.00,WUHU21623XXSP,2013-09-06 04:16:00,
2013-09-05 21:22:00,84.9,45.8,29.91,SSW,202,0.9,4.0,26,0.00,,,0.00,WUHU21623XXSP,2013-09-06 04:22:00,
2013-09-05 21:26:00,84.7,45.7,29.92,SSW,202,0.0,16.1,26,0.00,,,0.00,WUHU21623XXSP,2013-09-06 04:26:00,
2013-09-05 21:32:00,84.4,46.4,29.92,SSW,202,13.2,16.1,27,0.00,,,0.00,WUHU21623XXSP,2013-09-06 04:32:00,
2013-09-05 21:37:00,84.0,46.1,29.92,SSW,202,0.0,15.0,27,0.00,,,0.00,WUHU21623XXSP,2013-09-06 04:37:00,
2013-09-05 21:42:00,83.3,45.5,29.93,SSW,202,0.0,18.1,27,0.00,,,0.00,WUHU21623XXSP,2013-09-06 04:42:00,
2013-09-05 21:47:00,82.9,46.2,29.93,SSW,202,16.8,18.1,28,0.00,,,0.00,WUHU21623XXSP,2013-09-06 04:47:00,
2013-09-05 21:52:00,82.6,45.9,29.94,SSW,202,11.9,17.4,28,0.00,,,0.00,WUHU21623XXSP,2013-09-06 04:52:00,
2013-09-05 21:57:00,82.0,46.5,29.94,SSW,202,19.2,19.2,29,0.00,,,0.00,WUHU21623XXSP,2013-09-06 04:57:00,
2013-09-05 22:02:00,81.5,47.1,29.94,SSW,202,14.5,19.2,30,0.00,,,0.00,WUHU21623XXSP,2013-09-06 05:02:00,
2013-09-05 22:07:00,80.8,46.5,29.94,SSW,202,13.2,14.5,30,0.00,,,0.00,WUHU21623XXSP,2013-09-06 05:07:00,
2013-09-05 22:12:00,80.6,46.4,29.94,SSW,202,4.7,14.5,30,0.00,,,0.00,WUHU21623XXSP,2013-09-06 05:12:00,
2013-09-05 22:17:00,81.1,46.8,29.93,SSW,202,0.0,14.5,30,0.00,,,0.00,WUHU21623XXSP,2013-09-06 05:17:00,
2013-09-05 22:22:00,80.8,46.5,29.93,SSW,202,0.7,4.7,30,0.00,,,0.00,WUHU21623XXSP,2013-09-06 05:22:00,
2013-09-05 22:27:00,80.8,47.3,29.93,SSW,202,8.3,9.6,31,0.00,,,0.00,WUHU21623XXSP,2013-09-06 05:27:00,
2013-09-05 22:32:00,81.0,47.5,29.93,SSW,202,12.8,12.8,31,0.00,,,0.00,WUHU21623XXSP,2013-09-06 05:32:00,
2013-09-05 22:37:00,80.6,47.9,29.93,SSW,202,2.0,14.3,32,0.00,,,0.00,WUHU21623XXSP,2013-09-06 05:37:00,
2013-09-05 22:42:00,80.6,47.9,29.92,SSW,202,0.9,14.3,32,0.00,,,0.00,WUHU21623XXSP,2013-09-06 05:42:00,
2013-09-05 22:47:00,80.4,47.8,29.93,South,180,5.8,5.8,32,0.00,,,0.00,WUHU21623XXSP,2013-09-06 05:47:00,
2013-09-05 22:52:00,80.4,47.8,29.93,South,180,6.9,12.5,32,0.00,,,0.00,WUHU21623XXSP,2013-09-06 05:52:00,
2013-09-05 22:57:00,80.2,47.6,29.94,South,180,4.5,12.5,32,0.00,,,0.00,WUHU21623XXSP,2013-09-06 05:57:00,
2013-09-05 23:02:00,80.1,48.2,29.94,South,180,1.1,7.6,33,0.00,,,0.00,WUHU21623XXSP,2013-09-06 06:02:00,
2013-09-05 23:07:00,79.9,48.1,29.94,South,180,0.0,6.3,33,0.00,,,0.00,WUHU21623XXSP,2013-09-06 06:07:00,
2013-09-05 23:12:00,79.9,48.8,29.93,South,180,12.8,12.8,34,0.00,,,0.00,WUHU21623XXSP,2013-09-06 06:12:00,
2013-09-05 23:17:00,79.7,48.7,29.94,South,180,6.9,23.3,34,0.00,,,0.00,WUHU21623XXSP,2013-09-06 06:17:00,
2013-09-05 23:22:00,79.5,48.5,29.94,South,180,3.4,23.3,34,0.00,,,0.00,WUHU21623XXSP,2013-09-06 06:22:00,
2013-09-05 23:27:00,79.5,48.5,29.94,South,180,0.0,15.4,34,0.00,,,0.00,WUHU21623XXSP,2013-09-06 06:27:00,
2013-09-05 23:32:00,79.5,48.5,29.94,SSE,157,1.6,15.4,34,0.00,,,0.00,WUHU21623XXSP,2013-09-06 06:32:00,
2013-09-05 23:37:00,79.5,48.5,29.94,South,180,2.0,2.0,34,0.00,,,0.00,WUHU21623XXSP,2013-09-06 06:37:00,
2013-09-05 23:42:00,79.5,47.8,29.94,South,180,2.5,6.9,33,0.00,,,0.00,WUHU21623XXSP,2013-09-06 06:42:00,
2013-09-05 23:47:00,79.5,47.8,29.94,South,180,6.7,8.9,33,0.00,,,0.00,WUHU21623XXSP,2013-09-06 06:47:00,
2013-09-05 23:52:00,79.5,47.0,29.94,South,180,4.5,8.9,32,0.00,,,0.00,WUHU21623XXSP,2013-09-06 06:52:00,
2013-09-05 23:57:00,79.5,47.0,29.94,South,180,5.4,5.4,32,0.00,,,0.00,WUHU21623XXSP,2013-09-06 06:57:00,